Wind_Speed
8 9 9 10 10 10 10 10 11 12 13 13 14 14 15 15 16 17 17 18 18 18 19 20 21 22 23 23 24 25 25 26 26 27 28 29 30 32
10 10 11 12 12 12 13 13 13 14 14 15 16 16 17 17 18 19 19 19 20 20 21 21 22 23 24 24 25 26 27 28 28 29 29 30 31 32
12 13 13 14 14 15 15 16 16 17 17 18 18 19 20 20 21 21 22 22 22 23 23 23 24 25 25 26 26 27 28 29 29 30 31 31 31 32
15 15 16 16 17 17 18 18 19 20 20 21 21 22 22 23 23 24 24 25 25 25 26 26 26 27 28 28 29 29 30 30 31 31 31 32 32 33
17 17 18 19 19 20 20 21 21 22 23 23 24 24 25 25 26 26 27 27 27 28 28 29 29 30 30 31 31 32 32 33 33 33 34 34 34 34
19 20 21 21 22 22 23 23 24 24 25 26 26 27 27 28 28 29 29 29 30 30 31 32 32 32 33 33 33 34 35 35 36 36 36 37 37 37
22 23 24 24 25 25 26 26 26 27 28 28 29 29 30 30 31 31 31 32 33 34 34 35 35 35 36 36 36 37 37 38 38 38 39 39 39 39
25 26 27 27 27 28 29 29 30 30 31 31 31 32 32 33 34 34 34 34 35 37 37 37 38 38 38 39 39 40 40 40 40 41 41 41 41 41
28 29 29 30 30 31 32 32 33 33 33 34 34 35 35 36 37 37 38 38 38 39 40 39 41 41 42 42 43 43 43 43 43 43 44 44 45 44
30 31 32 32 33 33 34 34 35 36 36 37 37 37 38 39 40 40 41 41 41 42 43 43 43 44 45 45 46 46 46 46 46 46 46 47 47 47
33 34 34 35 36 36 36 37 37 38 39 40 40 41 41 42 43 44 44 44 44 44 46 47 46 47 47 48 49 49 49 49 49 49 50 49 49 49
35 36 37 37 38 39 39 39 39 40 41 42 43 44 45 46 46 47 47 47 47 47 48 50 50 50 49 49 51 52 52 53 53 52 52 52 52 52
37 38 39 40 41 41 41 42 43 43 43 44 45 46 47 48 49 49 50 50 50 51 52 53 52 53 53 52 52 53 55 56 56 55 55 54 53 53
39 40 41 41 42 42 44 45 46 46 46 47 48 49 49 50 50 51 52 52 53 54 55 56 56 56 57 57 56 55 56 57 56 55 55 54 53 52
41 42 43 44 44 45 46 47 47 48 49 50 50 51 52 53 54 54 55 57 57 57 59 60 61 61 61 60 59 58 57 56 56 55 55 54 53 53
42 43 44 45 46 48 49 49 50 51 52 53 54 54 55 55 56 57 58 59 59 60 62 63 63 62 62 61 60 58 57 55 53 53 53 52 52 51
43 44 46 47 49 50 51 52 52 53 54 55 55 56 57 58 59 60 61 62 62 62 61 61 61 60 60 60 57 55 53 52 50 49 49 48 48 47
46 47 49 50 50 51 52 52 53 54 55 55 56 57 58 59 59 60 61 61 61 60 60 59 58 58 57 55 53 51 50 49 49 48 47 45 44 44
48 49 50 50 50 51 52 52 52 54 55 56 57 58 58 58 59 59 59 60 59 58 57 55 54 54 52 48 47 48 47 46 45 44 43 42 41 40
49 50 50 51 52 52 52 52 53 54 55 55 56 56 57 57 58 58 58 57 55 53 51 50 49 49 47 45 43 42 43 43 41 39 38 38 39 38
50 50 51 52 53 53 52 53 53 54 54 55 55 55 56 56 56 55 54 52 50 49 47 46 45 45 45 43 41 38 38 39 38 37 36 36 35 36
51 51 52 52 53 53 53 53 53 54 55 55 56 56 56 55 53 51 49 47 46 45 44 42 42 42 41 40 38 36 35 35 35 35 34 34 34 33
51 52 52 52 52 52 52 52 53 54 54 54 54 54 53 51 49 47 45 44 43 42 40 39 38 38 37 36 35 33 32 32 32 31 30 31 32 31
Wind_Direction
266 271 276 281 283 286 290 294 296 295 296 297 297 298 298 297 297 297 296 295 294 294 293 291 290 288 286 285 283 282 281 279 278 276 274 271 269 267
267 272 277 280 282 284 287 290 293 294 295 296 295 295 294 295 295 295 295 294 293 292 292 291 290 289 288 287 285 283 282 281 279 277 275 272 270 268
269 273 277 279 281 282 285 287 289 291 293 294 294 293 293 293 293 293 292 292 291 291 291 290 290 289 289 288 287 286 284 282 281 280 277 274 272 270
272 275 277 279 281 283 285 287 289 291 291 292 292 292 292 292 291 291 290 290 290 289 290 290 290 290 289 288 287 286 285 283 281 281 279 276 273 271
273 276 279 280 281 283 285 288 289 290 291 291 291 291 291 291 291 290 290 290 289 289 289 289 289 289 289 288 287 286 285 283 282 280 279 277 275 273
274 277 279 281 282 283 285 287 288 289 289 289 289 290 290 290 290 291 291 290 290 289 290 290 289 289 288 287 286 285 284 283 281 280 278 277 275 274
275 278 280 282 283 285 286 287 288 288 288 289 289 290 290 290 290 291 290 289 289 289 290 290 290 289 288 288 287 286 285 284 282 280 277 276 275 274
277 280 281 282 284 286 287 287 287 288 289 290 290 290 289 289 289 289 289 288 288 288 289 290 290 290 289 288 288 287 286 284 282 281 279 277 275 275
277 279 281 283 284 285 286 287 287 288 288 289 290 290 289 289 289 289 289 288 288 287 287 288 289 289 289 288 288 287 285 284 283 281 279 278 276 275
278 280 282 283 284 284 285 286 287 287 288 288 289 290 289 289 289 289 288 288 288 288 287 287 287 288 289 288 288 287 285 284 282 281 280 279 277 275
278 281 282 283 283 285 285 285 286 287 287 288 289 289 289 288 288 288 288 287 287 287 288 288 287 287 288 288 288 287 286 284 283 281 280 279 277 276
279 281 282 283 283 285 285 285 286 286 286 288 288 289 289 288 288 288 288 288 288 288 288 288 288 288 288 288 288 287 285 284 283 282 280 279 277 275
279 281 282 284 285 285 284 284 285 286 286 287 287 288 288 288 288 289 288 289 289 289 288 288 288 288 289 289 288 287 286 285 284 283 281 279 277 276
280 282 283 285 286 285 286 286 286 286 287 287 287 287 287 287 288 289 290 290 289 289 288 288 289 289 289 289 288 287 286 285 285 283 282 280 278 276
281 283 284 285 286 286 287 288 288 288 287 287 287 287 287 287 288 288 289 290 289 289 289 290 290 290 290 290 289 288 286 286 285 283 281 279 276 274
282 284 284 285 286 286 287 288 287 287 287 287 288 287 287 287 288 288 288 288 288 289 290 291 291 291 291 290 290 289 287 285 284 281 279 277 275 273
285 286 286 286 286 287 287 287 287 287 287 287 287 287 287 287 287 288 289 289 289 289 290 291 291 291 291 291 290 288 287 285 282 280 278 277 274 272
287 287 286 286 286 287 288 288 289 289 289 290 290 289 289 289 290 290 290 290 290 290 291 290 290 290 291 291 290 288 287 285 282 279 277 275 272 270
287 287 286 286 287 288 290 290 290 290 290 290 290 291 291 292 292 292 292 292 291 292 292 291 291 290 291 289 288 287 287 285 283 279 276 274 273 270
287 287 287 288 289 289 290 290 291 291 292 292 292 292 293 293 293 293 293 293 292 293 292 292 291 291 290 290 289 287 286 285 282 279 276 274 274 271
288 288 289 289 290 290 290 291 292 293 293 293 293 294 294 294 294 294 293 293 292 292 292 291 290 290 290 290 290 287 285 284 282 279 277 275 272 270
288 288 289 289 290 290 291 292 293 293 294 294 294 294 294 294 294 294 293 292 293 293 293 292 291 291 291 291 291 288 285 284 283 282 279 277 275 272
288 289 290 291 291 291 292 292 293 294 295 295 295 295 294 294 293 293 293 292 292 293 293 292 291 292 292 292 293 291 288 286 283 281 280 279 277 274
Height
5873 5873 5873 5873 5872 5872 5871 5871 5870 5869 5868 5867 5866 5865 5863 5862 5861 5860 5859 5858 5857 5856 5854 5853 5852 5851 5850 5849 5848 5847 5846 5845 5845 5844 5844 5844 5844 5845
5871 5871 5870 5870 5870 5869 5868 5868 5867 5866 5865 5864 5863 5861 5860 5858 5857 5856 5854 5853 5852 5850 5849 5848 5847 5845 5844 5843 5842 5841 5840 5839 5838 5837 5837 5837 5837 5837
5868 5868 5867 5867 5866 5866 5865 5864 5863 5862 5861 5860 5858 5857 5855 5854 5852 5851 5849 5848 5846 5845 5843 5842 5840 5839 5838 5836 5835 5834 5832 5831 5830 5829 5829 5829 5828 5828
5864 5864 5864 5863 5863 5862 5861 5860 5859 5858 5856 5855 5853 5852 5850 5849 5847 5845 5844 5842 5840 5838 5837 5835 5834 5832 5830 5829 5827 5826 5825 5823 5822 5821 5820 5820 5819 5819
5861 5860 5860 5859 5858 5857 5856 5855 5854 5853 5851 5850 5848 5846 5844 5843 5841 5839 5837 5836 5834 5832 5830 5828 5826 5824 5823 5821 5819 5818 5816 5815 5813 5812 5811 5810 5810 5809
5856 5855 5855 5854 5853 5852 5851 5850 5848 5847 5845 5844 5842 5840 5838 5836 5834 5832 5830 5828 5826 5824 5822 5820 5818 5816 5814 5812 5810 5808 5807 5805 5804 5802 5801 5800 5800 5799
5850 5850 5849 5848 5847 5846 5845 5843 5842 5840 5838 5837 5835 5833 5831 5829 5827 5825 5823 5820 5818 5815 5814 5811 5809 5807 5805 5803 5801 5798 5796 5795 5793 5792 5790 5789 5789 5788
5844 5844 5843 5842 5841 5839 5838 5836 5835 5832 5831 5829 5827 5825 5823 5820 5818 5816 5814 5812 5810 5807 5804 5802 5799 5797 5794 5792 5790 5788 5785 5783 5782 5780 5779 5778 5777 5776
5837 5836 5835 5834 5833 5832 5830 5828 5826 5824 5822 5820 5818 5816 5814 5811 5808 5806 5804 5801 5799 5797 5794 5792 5788 5786 5783 5780 5778 5775 5773 5771 5769 5768 5766 5765 5764 5763
5830 5829 5828 5826 5824 5823 5821 5819 5817 5815 5812 5810 5809 5806 5804 5801 5798 5795 5793 5790 5788 5785 5781 5780 5777 5774 5771 5768 5765 5762 5760 5758 5756 5754 5752 5751 5750 5749
5822 5820 5819 5817 5815 5813 5811 5809 5807 5805 5802 5800 5797 5795 5792 5789 5786 5783 5781 5778 5776 5773 5768 5766 5764 5761 5758 5755 5751 5747 5745 5743 5741 5739 5737 5736 5735 5734
5813 5811 5809 5807 5805 5803 5801 5798 5796 5793 5791 5788 5785 5782 5779 5776 5773 5770 5767 5764 5761 5759 5755 5751 5749 5745 5744 5741 5736 5732 5729 5726 5724 5723 5721 5719 5718 5717
5803 5801 5799 5797 5794 5792 5790 5787 5784 5782 5779 5776 5773 5770 5766 5763 5759 5756 5752 5749 5747 5744 5740 5736 5733 5729 5726 5725 5722 5717 5712 5709 5707 5705 5703 5702 5700 5700
5793 5790 5788 5786 5783 5781 5778 5775 5772 5769 5766 5763 5760 5757 5754 5750 5746 5742 5738 5735 5731 5728 5724 5719 5716 5713 5709 5707 5704 5701 5696 5692 5689 5686 5684 5683 5682 5682
5781 5779 5776 5774 5771 5769 5766 5762 5759 5756 5753 5750 5746 5743 5739 5736 5732 5728 5724 5719 5716 5711 5707 5702 5698 5695 5691 5688 5686 5682 5679 5675 5670 5668 5666 5664 5664 5664
5770 5767 5764 5761 5759 5756 5752 5749 5745 5742 5738 5735 5731 5728 5724 5720 5716 5711 5707 5703 5699 5695 5689 5683 5679 5675 5672 5669 5666 5663 5660 5657 5654 5649 5647 5646 5645 5645
5757 5754 5752 5748 5745 5742 5738 5734 5731 5727 5723 5719 5715 5711 5707 5703 5699 5694 5690 5685 5681 5678 5673 5667 5660 5656 5653 5650 5647 5644 5641 5638 5635 5632 5630 5629 5629 5628
5744 5741 5738 5734 5731 5727 5724 5720 5715 5711 5707 5703 5698 5694 5690 5685 5681 5676 5671 5667 5662 5658 5654 5649 5644 5639 5636 5633 5629 5625 5623 5620 5618 5615 5613 5613 5614 5614
5731 5727 5724 5720 5716 5712 5708 5704 5700 5695 5691 5686 5681 5676 5672 5667 5663 5658 5654 5649 5645 5641 5636 5631 5627 5622 5619 5618 5616 5609 5606 5604 5601 5600 5599 5598 5599 5600
5716 5713 5709 5706 5702 5698 5693 5689 5685 5680 5675 5670 5665 5660 5655 5650 5646 5641 5636 5632 5628 5624 5620 5616 5611 5606 5603 5601 5601 5598 5591 5588 5587 5586 5586 5585 5586 5586
5702 5699 5695 5691 5687 5682 5678 5673 5669 5664 5659 5654 5649 5644 5638 5634 5629 5624 5620 5615 5612 5608 5605 5602 5597 5593 5589 5587 5585 5584 5580 5576 5573 5572 5572 5572 5573 5573
5688 5684 5680 5675 5671 5667 5662 5658 5653 5648 5643 5638 5633 5628 5622 5618 5613 5609 5605 5601 5598 5594 5591 5588 5584 5580 5577 5574 5572 5570 5568 5565 5562 5561 5560 5560 5559 5561
5673 5669 5664 5660 5656 5651 5647 5642 5637 5632 5627 5622 5617 5612 5607 5602 5598 5594 5591 5587 5584 5581 5578 5575 5572 5569 5565 5562 5560 5558 5556 5554 5552 5551 5550 5549 5549 5549